"Time","Value","Approval","myLocation"
"2023-05-18 21:00",18.489195652808,"Approved","OW332"
"2023-05-18 22:00",18.4861944277539,"Approved","OW332"
"2023-05-18 23:00",18.4911932026998,"Approved","OW332"
"2023-05-19 00:00",18.4841919776457,"Approved","OW332"
"2023-05-19 01:00",18.4861907525916,"Approved","OW332"
"2023-05-19 02:00",18.4881895275375,"Approved","OW332"
"2023-05-19 03:00",18.4861883024834,"Approved","OW332"
"2023-05-19 04:00",18.4841870774293,"Approved","OW332"
"2023-05-19 05:00",18.4851858523751,"Approved","OW332"
"2023-05-19 06:00",18.486184627321,"Approved","OW332"
"2023-05-19 07:00",18.4851834022669,"Approved","OW332"
"2023-05-19 08:00",18.4811821772128,"Approved","OW332"
"2023-05-19 09:00",18.4811809521587,"Approved","OW332"
"2023-05-19 10:00",18.4811797271046,"Approved","OW332"
"2023-05-19 11:00",18.4801785020505,"Approved","OW332"
"2023-05-19 12:00",18.4801772769964,"Approved","OW332"
"2023-05-19 13:00",18.4801760519423,"Approved","OW332"
"2023-05-19 14:00",18.4821748268882,"Approved","OW332"
"2023-05-19 15:00",18.4781736018341,"Approved","OW332"
"2023-05-19 16:00",18.48017237678,"Approved","OW332"
"2023-05-19 17:00",18.4811711517259,"Approved","OW332"
"2023-05-19 18:00",18.4821699266718,"Approved","OW332"
"2023-05-19 19:00",18.4841687016177,"Approved","OW332"
"2023-05-19 20:00",18.4861674765635,"Approved","OW332"
"2023-05-19 21:00",18.4901662515094,"Approved","OW332"
"2023-05-19 22:00",18.4871650264553,"Approved","OW332"
"2023-05-19 23:00",18.4891638014012,"Approved","OW332"
"2023-05-20 00:00",18.4871625763471,"Approved","OW332"
"2023-05-20 01:00",18.484161351293,"Approved","OW332"
"2023-05-20 02:00",18.4841601262389,"Approved","OW332"
"2023-05-20 03:00",18.4831589011848,"Approved","OW332"
"2023-05-20 04:00",18.4861576761307,"Approved","OW332"
"2023-05-20 05:00",18.4861564510766,"Approved","OW332"
"2023-05-20 06:00",18.4861552260225,"Approved","OW332"
"2023-05-20 07:00",18.4881540009684,"Approved","OW332"
"2023-05-20 08:00",18.4841527759143,"Approved","OW332"
"2023-05-20 09:00",18.4821515508602,"Approved","OW332"
"2023-05-20 10:00",18.4821503258061,"Approved","OW332"
"2023-05-20 11:00",18.4811491007519,"Approved","OW332"
"2023-05-20 12:00",18.4781478756978,"Approved","OW332"
"2023-05-20 13:00",18.4811466506437,"Approved","OW332"
"2023-05-20 14:00",18.4791454255896,"Approved","OW332"
"2023-05-20 15:00",18.4881442005355,"Approved","OW332"
"2023-05-20 16:00",18.4801429754814,"Approved","OW332"
"2023-05-20 17:00",18.4911417504273,"Approved","OW332"
"2023-05-20 18:00",18.4821405253732,"Approved","OW332"
"2023-05-20 19:00",18.4861393003191,"Approved","OW332"
"2023-05-20 20:00",18.488138075265,"Approved","OW332"
"2023-05-20 21:00",18.4921368502109,"Approved","OW332"
"2023-05-20 22:00",18.4881356251568,"Approved","OW332"
"2023-05-20 23:00",18.4861344001027,"Approved","OW332"
"2023-05-21 00:00",18.4821331750486,"Approved","OW332"
"2023-05-21 01:00",18.4831319499945,"Approved","OW332"
"2023-05-21 02:00",18.4851307249404,"Approved","OW332"
"2023-05-21 03:00",18.4811294998862,"Approved","OW332"
"2023-05-21 04:00",18.4921282748321,"Approved","OW332"
"2023-05-21 05:00",18.494127049778,"Approved","OW332"
"2023-05-21 06:00",18.4801258247239,"Approved","OW332"
"2023-05-21 07:00",18.4791245996698,"Approved","OW332"
"2023-05-21 08:00",18.4841233746157,"Approved","OW332"
"2023-05-21 09:00",18.4891221495616,"Approved","OW332"
"2023-05-21 10:00",18.4831209245075,"Approved","OW332"
"2023-05-21 11:00",18.4781196994534,"Approved","OW332"
"2023-05-21 12:00",18.4791184743993,"Approved","OW332"
"2023-06-02 02:00",18.4897779093577,"Approved","OW332"
"2023-06-02 03:00",18.4887766843036,"Approved","OW332"
"2023-06-02 04:00",18.4887754592494,"Approved","OW332"
"2023-06-02 05:00",18.4927742341953,"Approved","OW332"
"2023-06-02 06:00",18.4907730091412,"Approved","OW332"
"2023-06-02 07:00",18.4887717840871,"Approved","OW332"
"2023-06-02 08:00",18.486770559033,"Approved","OW332"
"2023-06-02 09:00",18.4847693339789,"Approved","OW332"
"2023-06-02 10:00",18.4857681089248,"Approved","OW332"
"2023-06-02 11:00",18.4827668838707,"Approved","OW332"
"2023-06-02 12:00",18.4867656588166,"Approved","OW332"
"2023-06-02 13:00",18.4847644337625,"Approved","OW332"
"2023-06-02 14:00",18.4847632087084,"Approved","OW332"
"2023-06-02 15:00",18.4847619836543,"Approved","OW332"
"2023-06-02 16:00",18.4857607586002,"Approved","OW332"
"2023-06-02 17:00",18.4877595335461,"Approved","OW332"
"2023-06-02 18:00",18.489758308492,"Approved","OW332"
"2023-06-02 19:00",18.4897570834379,"Approved","OW332"
"2023-06-02 20:00",18.4907558583837,"Approved","OW332"
"2023-06-02 21:00",18.4937546333296,"Approved","OW332"
"2023-06-02 22:00",18.4907534082755,"Approved","OW332"
"2023-06-02 23:00",18.4917521832214,"Approved","OW332"
"2023-06-03 00:00",18.4927509581673,"Approved","OW332"
"2023-06-03 01:00",18.4937497331132,"Approved","OW332"
"2023-06-03 02:00",18.4917485080591,"Approved","OW332"
"2023-06-03 03:00",18.491747283005,"Approved","OW332"
"2023-06-03 04:00",18.4907460579509,"Approved","OW332"
"2023-06-03 05:00",18.4907448328968,"Approved","OW332"
"2023-06-03 06:00",18.4907436078427,"Approved","OW332"
"2023-06-03 07:00",18.4867423827886,"Approved","OW332"
"2023-06-03 08:00",18.4877411577345,"Approved","OW332"
"2023-06-03 09:00",18.4867399326804,"Approved","OW332"
"2023-06-03 10:00",18.4837387076263,"Approved","OW332"
"2023-06-03 11:00",18.4837374825721,"Approved","OW332"
"2023-06-03 12:00",18.483736257518,"Approved","OW332"
"2023-06-03 13:00",18.4837350324639,"Approved","OW332"
"2023-06-03 14:00",18.4847338074098,"Approved","OW332"
"2023-06-03 15:00",18.4837325823557,"Approved","OW332"
"2023-06-03 16:00",18.4857313573016,"Approved","OW332"
"2023-06-03 17:00",18.4837301322475,"Approved","OW332"
"2023-06-03 18:00",18.4867289071934,"Approved","OW332"
"2023-06-03 19:00",18.4897276821393,"Approved","OW332"
"2023-06-03 20:00",18.4907264570852,"Approved","OW332"
"2023-06-03 21:00",18.4907252320311,"Approved","OW332"
"2023-06-03 22:00",18.489724006977,"Approved","OW332"
"2023-06-03 23:00",18.4917227819229,"Approved","OW332"
"2023-06-04 00:00",18.4927215568688,"Approved","OW332"
"2023-06-04 01:00",18.4917203318147,"Approved","OW332"
"2023-06-04 02:00",18.4937191067605,"Approved","OW332"
"2023-06-04 03:00",18.4897178817064,"Approved","OW332"
"2023-06-04 04:00",18.4937166566523,"Approved","OW332"
"2023-06-04 05:00",18.4947154315982,"Approved","OW332"
"2023-06-04 06:00",18.4927142065441,"Approved","OW332"
"2023-06-04 07:00",18.49171298149,"Approved","OW332"
"2023-06-04 08:00",18.4897117564359,"Approved","OW332"
"2023-06-04 09:00",18.4877105313818,"Approved","OW332"
"2023-06-04 10:00",18.4867093063277,"Approved","OW332"
"2023-06-04 11:00",18.4867080812736,"Approved","OW332"
"2023-06-04 12:00",18.4857068562195,"Approved","OW332"
"2023-06-04 13:00",18.4837056311654,"Approved","OW332"
"2023-06-04 14:00",18.4837044061113,"Approved","OW332"
"2023-06-04 15:00",18.4847031810572,"Approved","OW332"
"2023-06-04 16:00",18.4847019560031,"Approved","OW332"
"2023-06-04 17:00",18.485700730949,"Approved","OW332"
"2023-06-04 18:00",18.4886995058948,"Approved","OW332"
"2023-06-04 19:00",18.4906982808407,"Approved","OW332"
"2023-06-04 20:00",18.4896970557866,"Approved","OW332"
"2023-06-04 21:00",18.4936958307325,"Approved","OW332"
"2023-06-04 22:00",18.4916946056784,"Approved","OW332"
"2023-06-04 23:00",18.4906933806243,"Approved","OW332"
"2023-06-05 00:00",18.4886921555702,"Approved","OW332"
"2023-06-05 01:00",18.4926909305161,"Approved","OW332"
"2023-06-05 02:00",18.493689705462,"Approved","OW332"
"2023-06-05 03:00",18.4926884804079,"Approved","OW332"
"2023-06-05 04:00",18.4916872553538,"Approved","OW332"
"2023-06-05 05:00",18.4926860302997,"Approved","OW332"
"2023-06-05 06:00",18.4906848052456,"Approved","OW332"
"2023-06-05 07:00",18.4936835801915,"Approved","OW332"
"2023-06-05 08:00",18.4896823551374,"Approved","OW332"
"2023-06-05 09:00",18.4906811300832,"Approved","OW332"
"2023-06-05 10:00",18.4886799050291,"Approved","OW332"
"2023-06-05 11:00",18.488678679975,"Approved","OW332"
"2023-06-05 12:00",18.4866774549209,"Approved","OW332"
"2023-06-05 13:00",18.4866762298668,"Approved","OW332"
"2023-06-05 14:00",18.4876750048127,"Approved","OW332"
"2023-06-05 15:00",18.4866737797586,"Approved","OW332"
"2023-06-05 16:00",18.4876725547045,"Approved","OW332"
"2023-06-05 17:00",18.4876713296504,"Approved","OW332"
"2023-06-05 18:00",18.4896701045963,"Approved","OW332"
"2023-06-05 19:00",18.4916688795422,"Approved","OW332"
"2023-06-05 20:00",18.4926676544881,"Approved","OW332"
"2023-06-05 21:00",18.494666429434,"Approved","OW332"
"2023-06-05 22:00",18.4906652043799,"Approved","OW332"
"2023-06-05 23:00",18.4936639793258,"Approved","OW332"
"2023-06-06 00:00",18.4906627542716,"Approved","OW332"
"2023-06-06 01:00",18.4906615292175,"Approved","OW332"
"2023-06-06 02:00",18.4906603041634,"Approved","OW332"
"2023-06-06 03:00",18.4906590791093,"Approved","OW332"
"2023-06-06 04:00",18.4876578540552,"Approved","OW332"
"2023-06-06 05:00",18.4906566290011,"Approved","OW332"
"2023-06-06 06:00",18.491655403947,"Approved","OW332"
"2023-06-06 07:00",18.4876541788929,"Approved","OW332"
"2023-06-06 08:00",18.4856529538388,"Approved","OW332"
"2023-06-06 09:00",18.4846517287847,"Approved","OW332"
"2023-06-06 10:00",18.4836505037306,"Approved","OW332"
"2023-06-06 11:00",18.4876492786765,"Approved","OW332"
"2023-06-06 12:00",18.4826480536224,"Approved","OW332"
"2023-06-06 13:00",18.4836468285683,"Approved","OW332"
"2023-06-06 14:00",18.4836456035142,"Approved","OW332"
"2023-06-06 15:00",18.48464437846,"Approved","OW332"
"2023-06-06 16:00",18.4846431534059,"Approved","OW332"
"2023-06-06 17:00",18.4856419283518,"Approved","OW332"
"2023-06-06 18:00",18.4866407032977,"Approved","OW332"
"2023-06-06 19:00",18.4896394782436,"Approved","OW332"
"2023-06-06 20:00",18.4916382531895,"Approved","OW332"
"2023-06-06 21:00",18.4926370281354,"Approved","OW332"
"2023-06-06 22:00",18.4926358030813,"Approved","OW332"
"2023-06-06 23:00",18.4946345780272,"Approved","OW332"
"2023-06-07 00:00",18.4926333529731,"Approved","OW332"
"2023-06-07 01:00",18.488632127919,"Approved","OW332"
"2023-06-07 02:00",18.4936309028649,"Approved","OW332"
"2023-06-07 03:00",18.4896296778108,"Approved","OW332"
"2023-06-07 04:00",18.4946284527567,"Approved","OW332"
"2023-06-07 05:00",18.4926272277026,"Approved","OW332"
"2023-06-07 06:00",18.4926260026484,"Approved","OW332"
"2023-06-07 07:00",18.4906247775943,"Approved","OW332"
"2023-06-07 08:00",18.4896235525402,"Approved","OW332"
"2023-06-07 09:00",18.4866223274861,"Approved","OW332"
"2023-06-07 10:00",18.485621102432,"Approved","OW332"
"2023-06-07 11:00",18.4856198773779,"Approved","OW332"
"2023-06-07 12:00",18.4846186523238,"Approved","OW332"
"2023-06-07 13:00",18.4866174272697,"Approved","OW332"
"2023-06-07 14:00",18.4856162022156,"Approved","OW332"
"2023-06-07 15:00",18.4866149771615,"Approved","OW332"
"2023-06-07 16:00",18.4856137521074,"Approved","OW332"
"2023-06-07 17:00",18.4876125270533,"Approved","OW332"
"2023-06-07 18:00",18.4886113019992,"Approved","OW332"
"2023-06-07 19:00",18.4896100769451,"Approved","OW332"
"2023-06-07 20:00",18.493608851891,"Approved","OW332"
"2023-06-07 21:00",18.4936076268369,"Approved","OW332"
"2023-06-07 22:00",18.4946064017827,"Approved","OW332"
"2023-06-07 23:00",18.4966051767286,"Approved","OW332"
"2023-06-08 00:00",18.4936039516745,"Approved","OW332"
"2023-06-08 01:00",18.4916027266204,"Approved","OW332"
"2023-06-08 02:00",18.4946015015663,"Approved","OW332"
"2023-06-08 03:00",18.4926002765122,"Approved","OW332"
"2023-06-08 04:00",18.4935990514581,"Approved","OW332"
"2023-06-08 05:00",18.494597826404,"Approved","OW332"
"2023-06-08 06:00",18.4925966013499,"Approved","OW332"
"2023-06-08 07:00",18.4905953762958,"Approved","OW332"
"2023-06-08 08:00",18.4885941512417,"Approved","OW332"
"2023-06-08 09:00",18.4885929261876,"Approved","OW332"
"2023-06-08 10:00",18.4875917011335,"Approved","OW332"
"2023-06-08 11:00",18.4855904760794,"Approved","OW332"
"2023-06-08 12:00",18.4845892510253,"Approved","OW332"
"2023-06-08 13:00",18.4865880259711,"Approved","OW332"
"2023-06-08 14:00",18.486586800917,"Approved","OW332"
"2023-06-08 15:00",18.4855855758629,"Approved","OW332"
"2023-06-08 16:00",18.4875843508088,"Approved","OW332"
"2023-06-08 17:00",18.4895831257547,"Approved","OW332"
"2023-06-08 18:00",18.4875819007006,"Approved","OW332"
"2023-06-08 21:00",18.5065782255383,"Approved","OW332"
"2023-06-08 22:00",18.4935770004842,"Approved","OW332"
"2023-06-08 23:00",18.4925757754301,"Approved","OW332"
"2023-06-09 00:00",18.488574550376,"Approved","OW332"
"2023-06-09 01:00",18.4875733253219,"Approved","OW332"
"2023-06-09 02:00",18.4905721002678,"Approved","OW332"
"2023-06-09 03:00",18.4885708752137,"Approved","OW332"
"2023-06-09 04:00",18.4875696501595,"Approved","OW332"
"2023-06-09 05:00",18.4875684251054,"Approved","OW332"
"2023-06-09 06:00",18.4895672000513,"Approved","OW332"
"2023-06-09 07:00",18.4895659749972,"Approved","OW332"
"2023-06-09 08:00",18.4915647499431,"Approved","OW332"
"2023-06-09 09:00",18.488563524889,"Approved","OW332"
"2023-06-09 10:00",18.4915622998349,"Approved","OW332"
"2023-06-09 11:00",18.4885610747808,"Approved","OW332"
"2023-06-09 12:00",18.4905598497267,"Approved","OW332"
"2023-06-09 13:00",18.4915586246726,"Approved","OW332"
"2023-06-09 14:00",18.4905573996185,"Approved","OW332"
"2023-06-09 15:00",18.4935561745644,"Approved","OW332"
"2023-06-09 16:00",18.4895549495103,"Approved","OW332"
"2023-06-09 17:00",18.4885537244562,"Approved","OW332"
"2023-06-09 18:00",18.4905524994021,"Approved","OW332"
"2023-06-09 19:00",18.491551274348,"Approved","OW332"
"2023-06-09 20:00",18.4935500492938,"Approved","OW332"
"2023-06-09 21:00",18.4925488242397,"Approved","OW332"
"2023-06-09 22:00",18.4915475991856,"Approved","OW332"
"2023-06-09 23:00",18.4875463741315,"Approved","OW332"
"2023-06-10 00:00",18.4895451490774,"Approved","OW332"
"2023-06-10 01:00",18.4925439240233,"Approved","OW332"
"2023-06-10 02:00",18.4905426989692,"Approved","OW332"
"2023-06-10 03:00",18.4885414739151,"Approved","OW332"
"2023-06-10 04:00",18.491540248861,"Approved","OW332"
"2023-06-10 05:00",18.4925390238069,"Approved","OW332"
"2023-06-10 06:00",18.4915377987528,"Approved","OW332"
"2023-06-10 07:00",18.4935365736987,"Approved","OW332"
"2023-06-10 08:00",18.4915353486446,"Approved","OW332"
"2023-06-10 09:00",18.4905341235905,"Approved","OW332"
"2023-06-10 10:00",18.4895328985363,"Approved","OW332"
"2023-06-10 11:00",18.4925316734822,"Approved","OW332"
"2023-06-10 12:00",18.4965304484281,"Approved","OW332"
"2023-06-10 13:00",18.494529223374,"Approved","OW332"
"2023-06-10 14:00",18.4895279983199,"Approved","OW332"
"2023-06-10 15:00",18.4885267732658,"Approved","OW332"
"2023-06-10 16:00",18.4915255482117,"Approved","OW332"
"2023-06-10 17:00",18.4895243231576,"Approved","OW332"
"2023-06-10 18:00",18.4925230981035,"Approved","OW332"
"2023-06-10 19:00",18.4905218730494,"Approved","OW332"
"2023-06-10 20:00",18.4935206479953,"Approved","OW332"
"2023-06-10 21:00",18.4945194229412,"Approved","OW332"
"2023-06-10 22:00",18.4925181978871,"Approved","OW332"
"2023-06-10 23:00",18.491516972833,"Approved","OW332"
"2023-06-11 00:00",18.4905157477789,"Approved","OW332"
"2023-06-11 01:00",18.4925145227248,"Approved","OW332"
"2023-06-11 02:00",18.4925132976706,"Approved","OW332"
"2023-06-11 03:00",18.4925120726165,"Approved","OW332"
"2023-06-11 04:00",18.4935108475624,"Approved","OW332"
"2023-06-11 05:00",18.4935096225083,"Approved","OW332"
"2023-06-11 06:00",18.4935083974542,"Approved","OW332"
"2023-06-11 07:00",18.4925071724001,"Approved","OW332"
"2023-06-11 08:00",18.490505947346,"Approved","OW332"
"2023-06-11 09:00",18.4915047222919,"Approved","OW332"
"2023-06-11 10:00",18.4915034972378,"Approved","OW332"
"2023-06-11 11:00",18.4875022721837,"Approved","OW332"
"2023-06-11 12:00",18.4875010471296,"Approved","OW332"
"2023-06-11 13:00",18.4864998220755,"Approved","OW332"
"2023-06-11 14:00",18.4854985970214,"Approved","OW332"
"2023-06-11 15:00",18.4874973719673,"Approved","OW332"
"2023-06-11 16:00",18.4894961469132,"Approved","OW332"
"2023-06-11 17:00",18.492494921859,"Approved","OW332"
"2023-06-11 18:00",18.4934936968049,"Approved","OW332"
"2023-06-11 19:00",18.4924924717508,"Approved","OW332"
"2023-06-11 20:00",18.4954912466967,"Approved","OW332"
"2023-06-11 21:00",18.4944900216426,"Approved","OW332"
"2023-06-11 22:00",18.4934887965885,"Approved","OW332"
"2023-06-11 23:00",18.4934875715344,"Approved","OW332"
"2023-06-12 00:00",18.4934863464803,"Approved","OW332"
"2023-06-12 01:00",18.4904851214262,"Approved","OW332"
"2023-06-12 02:00",18.4964838963721,"Approved","OW332"
"2023-06-12 03:00",18.493482671318,"Approved","OW332"
"2023-06-12 04:00",18.4934814462639,"Approved","OW332"
"2023-06-12 05:00",18.4954802212098,"Approved","OW332"
"2023-06-12 06:00",18.4924789961557,"Approved","OW332"
"2023-06-12 07:00",18.4924777711016,"Approved","OW332"
"2023-06-12 08:00",18.4924765460474,"Approved","OW332"
"2023-06-12 09:00",18.4904753209933,"Approved","OW332"
"2023-06-12 10:00",18.4894740959392,"Approved","OW332"
"2023-06-12 11:00",18.4894728708851,"Approved","OW332"
"2023-06-12 12:00",18.487471645831,"Approved","OW332"
"2023-06-12 13:00",18.4874704207769,"Approved","OW332"
"2023-06-12 14:00",18.4884691957228,"Approved","OW332"
"2023-06-12 15:00",18.4884679706687,"Approved","OW332"
"2023-06-12 16:00",18.4854667456146,"Approved","OW332"
"2023-06-12 17:00",18.4924655205605,"Approved","OW332"
"2023-06-12 18:00",18.4914642955064,"Approved","OW332"
"2023-06-12 19:00",18.4944630704523,"Approved","OW332"
"2023-06-12 20:00",18.4944618453982,"Approved","OW332"
"2023-06-12 21:00",18.4954606203441,"Approved","OW332"
"2023-06-12 22:00",18.49445939529,"Approved","OW332"
"2023-06-12 23:00",18.4924581702358,"Approved","OW332"
"2023-06-13 00:00",18.4934569451817,"Approved","OW332"
"2023-06-13 01:00",18.4934557201276,"Approved","OW332"
"2023-06-13 02:00",18.4934544950735,"Approved","OW332"
"2023-06-13 03:00",18.4944532700194,"Approved","OW332"
"2023-06-13 04:00",18.4934520449653,"Approved","OW332"
"2023-06-13 05:00",18.4914508199112,"Approved","OW332"
"2023-06-13 06:00",18.4904495948571,"Approved","OW332"
"2023-06-13 07:00",18.491448369803,"Approved","OW332"
"2023-06-13 08:00",18.4884471447489,"Approved","OW332"
"2023-06-13 09:00",18.4874459196948,"Approved","OW332"
"2023-06-13 10:00",18.4854446946407,"Approved","OW332"
"2023-06-13 11:00",18.4864434695866,"Approved","OW332"
"2023-06-13 12:00",18.4874422445325,"Approved","OW332"
"2023-06-13 13:00",18.4824410194784,"Approved","OW332"
"2023-06-13 14:00",18.4834397944243,"Approved","OW332"
"2023-06-13 15:00",18.4824385693701,"Approved","OW332"
"2023-06-13 21:00",18.5074312190455,"Approved","OW332"
"2023-06-13 22:00",18.4964299939914,"Approved","OW332"
"2023-06-13 23:00",18.4874287689373,"Approved","OW332"
"2023-06-14 00:00",18.4894275438832,"Approved","OW332"
"2023-06-14 01:00",18.4924263188291,"Approved","OW332"
"2023-06-14 02:00",18.496425093775,"Approved","OW332"
"2023-06-14 03:00",18.4964238687209,"Approved","OW332"
"2023-06-14 04:00",18.4954226436668,"Approved","OW332"
"2023-06-14 05:00",18.5004214186127,"Approved","OW332"
"2023-06-14 06:00",18.4964201935585,"Approved","OW332"
"2023-06-14 07:00",18.4964189685044,"Approved","OW332"
"2023-06-14 08:00",18.4974177434503,"Approved","OW332"
"2023-06-14 09:00",18.4894165183962,"Approved","OW332"
"2023-06-14 10:00",18.4984152933421,"Approved","OW332"
"2023-06-14 11:00",18.491414068288,"Approved","OW332"
"2023-06-14 12:00",18.4964128432339,"Approved","OW332"
"2023-06-14 13:00",18.4934116181798,"Approved","OW332"
"2023-06-14 14:00",18.4944103931257,"Approved","OW332"
"2023-06-14 15:00",18.4934091680716,"Approved","OW332"
"2023-06-14 16:00",18.4934079430175,"Approved","OW332"
"2023-06-14 17:00",18.4934067179634,"Approved","OW332"
"2023-06-14 18:00",18.4944054929093,"Approved","OW332"
"2023-06-14 19:00",18.4944042678552,"Approved","OW332"
"2023-06-14 20:00",18.4964030428011,"Approved","OW332"
"2023-06-14 21:00",18.4964018177469,"Approved","OW332"
"2023-06-14 22:00",18.4964005926928,"Approved","OW332"
"2023-06-14 23:00",18.4973993676387,"Approved","OW332"
"2023-06-15 00:00",18.4943981425846,"Approved","OW332"
"2023-06-15 01:00",18.4953969175305,"Approved","OW332"
"2023-06-15 02:00",18.4953956924764,"Approved","OW332"
"2023-06-15 03:00",18.4943944674223,"Approved","OW332"
"2023-06-15 04:00",18.4953932423682,"Approved","OW332"
"2023-06-15 05:00",18.4983920173141,"Approved","OW332"
"2023-06-15 06:00",18.49839079226,"Approved","OW332"
"2023-06-15 07:00",18.4953895672059,"Approved","OW332"
"2023-06-15 08:00",18.4973883421518,"Approved","OW332"
"2023-06-15 09:00",18.4943871170977,"Approved","OW332"
"2023-06-15 10:00",18.4923858920436,"Approved","OW332"
"2023-06-15 11:00",18.4923846669895,"Approved","OW332"
"2023-06-15 12:00",18.4903834419354,"Approved","OW332"
"2023-06-15 13:00",18.4903822168812,"Approved","OW332"
"2023-06-15 14:00",18.4923809918271,"Approved","OW332"
"2023-06-15 15:00",18.493379766773,"Approved","OW332"
"2023-06-15 16:00",18.4903785417189,"Approved","OW332"
"2023-06-15 17:00",18.4923773166648,"Approved","OW332"
"2023-06-15 18:00",18.4953760916107,"Approved","OW332"
"2023-06-15 19:00",18.4963748665566,"Approved","OW332"
"2023-06-15 20:00",18.5003736415025,"Approved","OW332"
"2023-06-15 21:00",18.4993724164484,"Approved","OW332"
"2023-06-15 22:00",18.4963711913943,"Approved","OW332"
"2023-06-15 23:00",18.4963699663402,"Approved","OW332"
"2023-06-16 00:00",18.4953687412861,"Approved","OW332"
"2023-06-16 01:00",18.495367516232,"Approved","OW332"
"2023-06-16 02:00",18.4943662911779,"Approved","OW332"
"2023-06-16 03:00",18.4983650661238,"Approved","OW332"
"2023-06-16 04:00",18.4953638410696,"Approved","OW332"
"2023-06-16 05:00",18.4933626160155,"Approved","OW332"
"2023-06-16 06:00",18.4953613909614,"Approved","OW332"
"2023-06-26 02:00",18.5050722781923,"Approved","OW332"
"2023-06-26 03:00",18.5050710531382,"Approved","OW332"
"2023-06-26 04:00",18.5030698280841,"Approved","OW332"
"2023-06-26 05:00",18.50706860303,"Approved","OW332"
"2023-06-26 06:00",18.5050673779759,"Approved","OW332"
"2023-06-26 07:00",18.5040661529218,"Approved","OW332"
"2023-06-26 08:00",18.5000649278676,"Approved","OW332"
"2023-06-26 09:00",18.4980637028135,"Approved","OW332"
"2023-06-26 10:00",18.4990624777594,"Approved","OW332"
"2023-06-26 11:00",18.5000612527053,"Approved","OW332"
"2023-06-26 12:00",18.4980600276512,"Approved","OW332"
"2023-06-26 13:00",18.4990588025971,"Approved","OW332"
"2023-06-26 14:00",18.498057577543,"Approved","OW332"
"2023-06-26 15:00",18.5000563524889,"Approved","OW332"
"2023-06-26 16:00",18.5090551274348,"Approved","OW332"
"2023-06-26 17:00",18.4970539023807,"Approved","OW332"
"2023-06-26 18:00",18.5030526773266,"Approved","OW332"
"2023-06-26 19:00",18.5050514522725,"Approved","OW332"
"2023-06-26 20:00",18.5080502272184,"Approved","OW332"
"2023-06-26 21:00",18.5120490021643,"Approved","OW332"
"2023-06-26 22:00",18.5060477771102,"Approved","OW332"
"2023-06-26 23:00",18.5060465520561,"Approved","OW332"
"2023-06-27 00:00",18.5060453270019,"Approved","OW332"
"2023-06-27 01:00",18.5050441019478,"Approved","OW332"
"2023-06-27 02:00",18.5040428768937,"Approved","OW332"
"2023-06-27 03:00",18.5070416518396,"Approved","OW332"
"2023-06-27 04:00",18.5060404267855,"Approved","OW332"
"2023-06-27 05:00",18.5060392017314,"Approved","OW332"
"2023-06-27 06:00",18.5060379766773,"Approved","OW332"
"2023-06-27 07:00",18.5040367516232,"Approved","OW332"